SEASAT 1

Last updated on Sun Jun 21 2026 00:02:14 GMT+0000 (Coordinated Universal Time)

1 10967U 78064A 26171.42130973 .00000153 00000+0 81052-4 0 9992 2 10967 108.0177 341.0778 0001736 240.3380 119.7593 14.46245232521361
UTC large
Height (km)
Speed (km/s)
/
Latitude / Longitude
Inclination (degrees)
Orbital Period (minutes)
Azimuth
Elevation
Range (km)
Doppler Factor

Next 0 passes for location: London (51.5072 / 0.1276)

No passes found over London.
SEASAT 1